Location: Newark
(53.5596°N, 1.2370°W)
Time: 18:17:25
(UTC+00:00)

ISS - Visible Passes

Search period start: 21 October 2019 00:00
Search period end: 31 October 2019 00:00
Orbit: 411 x 421 km, 51.6° (Epoch: 21 October)

Date Brightness Start Highest point End Pass type
(mag) Time Alt. Az. Time Alt. Az. Time Alt. Az.
25 Oct -0.7 05:37:13 10° SSE 05:38:42 12° SE 05:40:10 10° ESE visible
27 Oct -1.5 05:35:05 10° SSW 05:37:48 23° SSE 05:40:30 10° E visible
28 Oct -1.2 04:47:33 12° S 04:49:21 17° SE 04:51:35 10° ESE visible
29 Oct -0.8 04:01:15 12° SE 04:01:15 12° SE 04:02:12 10° ESE visible
29 Oct -2.5 05:34:09 12° SW 05:36:59 37° SSE 05:40:08 10° E visible
30 Oct -2.2 04:47:44 26° S 04:48:27 28° SSE 04:51:24 10° E visible
30 Oct -3.3 06:21:32 10° WSW 06:24:52 60° S 06:28:12 10° E visible
